This demonstration page uses our WeatherBlox Daily Observations layout. Learn more.

Left ArrowRight Arrow

41.55636, -103.73856

Hourly Observations for April 13, 2020

Temp ( °F °C ) Dew Point ( °F °C ) Humidity (%) Winds ( mph kmh ) Pressure ( in mb ) Visibility ( mi km ) Precip ( " mm )
12:58 am 00:58 Mostly Clear 8 -13.5 4 -15.5 85 85 NW 9 15 30.34 1027 10 16 0.00 0.00
1:58 am 01:58 Clear 6 -14.6 2 -16.4 86 86 WNW 7 11 30.33 1027 10 16 0.00 0.00
2:58 am 02:58 Mostly Clear 5 -15 2 -16.5 88 88 NW 7 11 30.33 1027 10 16 0.00 0.00
3:58 am 03:58 Clear 5 -15.1 2 -16.8 87 87 NNW 7 11 30.32 1027 10 16 0.00 0.00
4:58 am 04:58 Mostly Clear 6 -14.6 4 -15.8 91 91 WNW 9 15 30.32 1027 10 16 0.00 0.00
5:58 am 05:58 Partly Cloudy 11 -11.8 8 -13.6 87 87 NW 8 13 30.29 1026 10 16 0.00 0.00
6:58 am 06:58 Mostly Cloudy 13 -10.4 8 -13.5 78 78 N 8 13 30.29 1026 10 16 0.00 0.00
7:58 am 07:58 Mostly Cloudy 15 -9.6 6 -14.3 69 69 NW 10 17 30.32 1027 10 16 0.00 0.00
8:58 am 08:58 Mostly Sunny 16 -8.9 5 -15 62 62 NNW 10 17 30.33 1027 10 16 0.00 0.00
9:58 am 09:58 Mostly Sunny 18 -8 5 -15.1 57 57 N 8 13 30.33 1027 10 16 0.00 0.00
10:58 am 10:58 Sunny 20 -6.9 2 -16.7 46 46 Calm 30.33 1027 10 16 0.00 0.00
11:58 am 11:58 Sunny 20 -6.7 2 -16.4 46 46 NW 5 7 30.33 1027 10 16 0.00 0.00
12:58 pm 12:58 Sunny 21 -6 5 -14.8 50 50 Calm 30.32 1027 10 16 0.00 0.00
1:58 pm 13:58 Sunny 23 -4.8 7 -14.1 49 49 Calm 30.31 1026 10 16 0.00 0.00
2:58 pm 14:58 Partly Cloudy 25 -4 5 -15 42 42 Calm 30.28 1025 10 16 0.00 0.00
5:58 pm 17:58 Partly Cloudy 26 -3.3 8 -13.2 47 47 NE 14 22 30.27 1025 10 16 0.00 0.00
6:58 pm 18:58 Sunny 24 -4.2 8 -13.2 50 50 N 12 19 30.29 1026 10 16 0.00 0.00
7:56 pm 19:56 Clear 21 -6.1 10 -12.4 61 61 N 5 7 30.32 1027 10 16 0.00 0.00
8:56 pm 20:56 Clear 21 -5.9 7 -13.8 54 54 N 7 11 30.33 1027 10 16 0.00 0.00
9:56 pm 21:56 Clear 21 -6.2 9 -12.9 59 59 N 5 7 30.34 1028 10 16 0.00 0.00
10:56 pm 22:56 Mostly Clear 20 -6.4 13 -10.7 72 72 Calm 30.35 1028 10 16 0.00 0.00
11:56 pm 23:56 Mostly Cloudy with Light Snow Showers 22 -5.5 12 -10.9 66 66 NW 5 7 30.35 1028 10 16 0.00 0.00

Powered by AerisWeather